Location: Moydans
(44.3997°N, 5.5038°E)
Time: 02:40:51
(UTC+02:00)

Envisat - Pass Details

Date: 27 September 2021
Orbit: 764 x 766 km, 98.2° (Epoch: 17 October)

Event Time Altitude Azimuth Distance (km) Brightness Sun altitude
Rises 06:22:34 0° 18° (NNE) 3,239 6.7 -13.0°
Reaches altitude 10° 06:24:59 10° 25° (NNE) 2,308 6.0 -12.6°
Maximum altitude 06:29:53 46° 99° (E) 1,016 4.2 -11.7°
Drops below altitude 10° 06:34:44 10° 172° (S) 2,292 5.5 -10.9°
Sets 06:37:06 0° 179° (S) 3,213 6.2 -10.4°
